This demonstration page uses our WeatherBlox Daily Observations layout. Learn more.

Left ArrowRight Arrow

Hourly Observations for September 21, 2019

Temp ( °F °C ) Dew Point ( °F °C ) Humidity (%) Winds ( mph kmh ) Pressure ( in mb ) Visibility ( mi km ) Precip ( " mm )
12:15 am 00:15 Clear 70 21.2 67 19.5 90 90 S 18 30 29.69 1006 10 16 0.00 0.00
12:35 am 00:35 Clear 71 21.4 67 19.4 88 88 SSE 21 33 29.69 1005 10 16 0.00 0.00
12:55 am 00:55 Clear 70 21.2 67 19.3 89 89 SSE 20 31 29.68 1005 10 16 0.00 0.00
1:15 am 01:15 Clear 70 21 67 19.3 90 90 S 20 31 29.68 1005 10 16 0.00 0.00
1:35 am 01:35 Clear 69 20.8 67 19.2 91 91 S 20 31 29.69 1005 10 16 0.00 0.00
1:55 am 01:55 Clear 69 20.7 66 19.1 91 91 S 21 33 29.68 1005 10 16 0.00 0.00
2:15 am 02:15 Clear 69 20.7 66 19.1 91 91 S 20 31 29.67 1005 10 16 0.00 0.00
2:35 am 02:35 Clear 69 20.7 66 19.1 91 91 S 24 39 29.66 1004 10 16 0.00 0.00
2:55 am 02:55 Clear 69 20.6 66 19 91 91 S 20 31 29.66 1004 10 16 0.00 0.00
3:15 am 03:15 Clear 69 20.7 66 19.1 91 91 S 22 35 29.66 1004 10 16 0.00 0.00
3:35 am 03:35 Clear 69 20.7 66 19.1 91 91 S 20 31 29.66 1004 10 16 0.00 0.00
3:55 am 03:55 Clear 69 20.6 66 19.1 91 91 S 20 31 29.67 1005 10 16 0.00 0.00
4:15 am 04:15 Partly Cloudy 69 20.6 67 19.2 92 92 S 14 22 29.68 1005 10 16 0.00 0.00
4:35 am 04:35 Partly Cloudy 69 20.5 66 19.1 92 92 S 16 26 29.67 1005 10 16 0.00 0.00
4:55 am 04:55 Mostly Cloudy 70 20.9 67 19.2 90 90 SSW 18 30 29.67 1005 10 16 0.00 0.00
5:15 am 05:15 Partly Cloudy 69 20.6 66 19.1 91 91 S 20 31 29.67 1005 10 16 0.00 0.00
5:35 am 05:35 Clear 68 20.2 66 19 93 93 SSW 14 22 29.67 1005 10 16 0.00 0.00
5:55 am 05:55 Clear 68 20.1 66 18.8 92 92 SSW 10 17 29.68 1005 10 16 0.00 0.00
6:15 am 06:15 Clear 68 19.8 65 18.6 93 93 SSW 9 15 29.69 1006 10 16 0.00 0.00
6:35 am 06:35 Clear 67 19.5 65 18.5 94 94 SSW 6 9 29.70 1006 10 16 0.00 0.00
6:55 am 06:55 Clear 66 18.7 64 18 96 96 Calm 29.71 1006 7 11 0.00 0.00
7:15 am 07:15 Partly Cloudy 66 18.7 65 18.2 97 97 W 3 6 29.72 1007 7 11 0.00 0.00
7:35 am 07:35 Sunny 65 18.5 64 18 97 97 S 3 6 29.74 1007 7 11 0.00 0.00
7:55 am 07:55 Sunny with Mist and Fog 65 18.1 64 17.9 99 99 S 3 6 29.74 1007 5 8 0.00 0.00
8:15 am 08:15 Sunny with Mist and Fog 64 17.9 64 17.8 99 99 Calm 29.76 1008 4 6 0.00 0.00
8:35 am 08:35 Sunny with Mist and Fog 65 18.6 65 18.2 98 98 Calm 29.75 1008 5 8 0.00 0.00
8:55 am 08:55 Sunny with Mist and Fog 67 19.6 65 18.6 94 94 Calm 29.76 1008 5 8 0.00 0.00
9:15 am 09:15 Sunny 69 20.3 66 18.8 91 91 W 5 7 29.76 1008 7 11 0.00 0.00
9:35 am 09:35 Sunny 70 21 66 19 88 88 NW 7 11 29.75 1008 7 11 0.00 0.00
9:55 am 09:55 Partly Cloudy 71 21.7 67 19.2 86 86 NNW 10 17 29.76 1008 10 16 0.00 0.00
10:15 am 10:15 Mostly Cloudy 72 22.4 67 19.4 83 83 NNW 9 15 29.76 1008 10 16 0.00 0.00
10:35 am 10:35 Partly Cloudy 74 23.2 66 19.1 78 78 NNW 10 17 29.78 1008 10 16 0.00 0.00
10:55 am 10:55 Partly Cloudy 74 23.4 65 18.5 74 74 NW 12 19 29.77 1008 10 16 0.00 0.00
11:15 am 11:15 Sunny 75 24.1 64 18 69 69 NW 13 20 29.77 1008 10 16 0.00 0.00
11:35 am 11:35 Sunny 76 24.6 63 17.3 64 64 NW 14 22 29.77 1008 10 16 0.00 0.00
11:55 am 11:55 Sunny 78 25.3 61 16 56 56 NW 13 20 29.77 1008 10 16 0.00 0.00
12:15 pm 12:15 Sunny 78 25.4 59 14.8 52 52 NNW 13 20 29.77 1008 10 16 0.00 0.00
12:35 pm 12:35 Sunny 80 26.5 56 13.4 44 44 NW 17 28 29.76 1008 10 16 0.00 0.00
12:55 pm 12:55 Sunny 80 26.6 55 13 43 43 NW 15 24 29.76 1008 10 16 0.00 0.00
1:15 pm 13:15 Sunny 81 27.1 54 12 39 39 NNW 12 19 29.75 1008 10 16 0.00 0.00
1:35 pm 13:35 Sunny 82 27.6 53 11.6 37 37 N 15 24 29.74 1007 10 16 0.00 0.00
1:55 pm 13:55 Sunny 82 27.5 53 11.9 38 38 NW 16 26 29.74 1007 10 16 0.00 0.00
2:15 pm 14:15 Sunny 83 28.1 53 11.7 36 36 NNW 14 22 29.73 1007 10 16 0.00 0.00
2:35 pm 14:35 Sunny 83 28.2 51 10.3 33 33 NNW 12 19 29.72 1007 10 16 0.00 0.00
2:55 pm 14:55 Sunny 83 28.6 48 9.1 29 29 N 10 17 29.72 1006 10 16 0.00 0.00
3:15 pm 15:15 Sunny 84 28.9 44 6.4 24 24 NW 8 13 29.72 1006 10 16 0.00 0.00
3:35 pm 15:35 Sunny 84 29 47 8.4 27 27 NW 9 15 29.73 1007 10 16 0.00 0.00
3:55 pm 15:55 Sunny 84 28.9 45 7.4 26 26 N 7 11 29.72 1006 10 16 0.00 0.00
4:15 pm 16:15 Sunny 83 28.5 41 4.9 22 22 NW 7 11 29.72 1006 10 16 0.00 0.00
4:35 pm 16:35 Sunny 83 28.5 39 3.7 20 20 NNW 5 7 29.72 1006 10 16 0.00 0.00
4:55 pm 16:55 Sunny 84 28.7 37 2.6 19 19 NW 8 13 29.72 1006 10 16 0.00 0.00
5:15 pm 17:15 Sunny 84 28.7 38 3.1 19 19 NNW 7 11 29.72 1006 10 16 0.00 0.00
5:35 pm 17:35 Sunny 83 28.6 38 3.6 20 20 NNW 10 17 29.73 1007 10 16 0.00 0.00
5:55 pm 17:55 Sunny 82 27.8 39 3.9 22 22 N 7 11 29.74 1007 10 16 0.00 0.00
6:15 pm 18:15 Sunny 81 27 41 4.9 24 24 N 8 13 29.74 1007 10 16 0.00 0.00
6:35 pm 18:35 Sunny 79 26.1 43 6.3 28 28 N 6 9 29.75 1007 10 16 0.00 0.00
6:55 pm 18:55 Sunny 77 24.8 45 7.2 33 33 N 6 9 29.76 1008 10 16 0.00 0.00
7:15 pm 19:15 Sunny 73 22.8 46 7.6 38 38 N 7 11 29.78 1008 10 16 0.00 0.00
7:35 pm 19:35 Sunny 68 20.1 47 8.4 47 47 N 7 11 29.80 1009 10 16 0.00 0.00
7:55 pm 19:55 Clear 66 18.7 47 8.2 51 51 N 8 13 29.81 1010 10 16 0.00 0.00
8:15 pm 20:15 Clear 64 17.7 47 8.1 54 54 N 9 15 29.82 1010 10 16 0.00 0.00
8:35 pm 20:35 Clear 61 16 47 8.3 60 60 N 7 11 29.84 1010 10 16 0.00 0.00
8:55 pm 20:55 Clear 59 15.1 48 8.9 67 67 N 9 15 29.85 1011 7 11 0.00 0.00
9:15 pm 21:15 Clear 61 16 46 7.8 58 58 N 8 13 29.84 1010 10 16 0.00 0.00
9:35 pm 21:35 Clear 60 15.5 46 7.7 60 60 N 7 11 29.84 1011 10 16 0.00 0.00
9:55 pm 21:55 Clear 61 15.9 45 7.3 57 57 N 7 11 29.83 1010 10 16 0.00 0.00
10:15 pm 22:15 Partly Cloudy 60 15.7 46 7.5 58 58 NNE 7 11 29.85 1011 10 16 0.00 0.00
10:35 pm 22:35 Cloudy 63 17.3 45 7.3 52 52 N 12 19 29.84 1010 10 16 0.00 0.00
10:55 pm 22:55 Cloudy 65 18.2 45 7 48 48 N 15 24 29.83 1010 10 16 0.00 0.00
11:15 pm 23:15 Partly Cloudy 64 17.9 45 7 49 49 NNE 15 24 29.83 1010 10 16 0.00 0.00
11:35 pm 23:35 Partly Cloudy 63 17.3 45 7.3 52 52 NE 14 22 29.85 1011 10 16 0.00 0.00
11:55 pm 23:55 Partly Cloudy 62 16.8 46 7.5 54 54 NE 12 19 29.84 1010 10 16 0.00 0.00

Powered by AerisWeather